Location: Arbon
(43.0005°N, 0.7472°E)
Time: 22:32:20
(UTC+00:00)

Altair - Pass Details

Date: 26 November 2020
Orbit: 1501 x 1682 km, 47.2° (Epoch: 26 January)

Event Time Altitude Azimuth Distance (km) Brightness Sun altitude
Rises 21:25:35 0° 239° (WSW) 4,708 10.3 -53.8°
Reaches altitude 10° 21:28:40 10° 239° (WSW) 3,706 9.7 -54.3°
Enters shadow 21:29:04 12° 239° (WSW) 3,576 9.6 -54.3°
Maximum altitude 21:37:59 83° 153° (SSE) 1,523 - -55.8°
Drops below altitude 10° 21:47:10 10° 68° (ENE) 3,656 - -57.2°
Sets 21:50:11 0° 67° (ENE) 4,642 - -57.7°
